Weather History for Watertown, SD

Change the Weather History Date:

Saturday, February 16, 2013

  Actual Average Record
Temperature  
Mean Temperature 14 °F 18 °F  
Max Temperature 21 °F 28 °F 54 °F (1981)
Min Temperature 7 °F 8 °F -36 °F (1936)
Degree Days  
Heating Degree Days 51 47  
Month to date heating degree days 769 791  
Since 1 July heating degree days 5739 5873  
Cooling Degree Days 0 0  
Month to date cooling degree days 0 0  
Year to date cooling degree days 0 0  
Moisture  
Dew Point 10 °F    
Average Humidity 89    
Maximum Humidity 100    
Minimum Humidity 77    
Precipitation  
Precipitation 0.00 in 0.02 in 0.38 in (1938)
Month to date precipitation 0.91 0.27  
Year to date precipitation 1.19 0.79  
Snow  
Snow 0.00 in - - ()
Month to date snowfall 11.0  
Since 1 July snowfall 23.6  
Snow Depth -    
Sea Level Pressure  
Sea Level Pressure 30.11 in    
Wind  
Wind Speed 8 mph (SSE)    
Max Wind Speed 14 mph    
Max Gust Speed 16 mph    
Visibility 7 miles    
Events Fog , Snow    
T = Trace of Precipitation, MM = Missing Value Source: NWS Daily Summary

Daily Weather History Graph

Daily Weather History Graph

Search for Another Location

Airport:

Trip Planner

Search our weather history database for the weather conditions in past years. The results will help you decide how hot, cold, wet, or windy it might be!

Date:

Astronomy

Feb. 16, 2013 Rise Set
Actual Time 7:27 AM CST 5:58 PM CST
Civil Twilight 6:57 AM CST 6:28 PM CST
Nautical Twilight 6:23 AM CST 7:02 PM CST
Astronomical Twilight 5:49 AM CST 7:36 PM CST
Moon 10:21 AM CST (2/16) 12:17 AM CST (2/16)
Length of Visible Light 11h 31m
Length of Day
10h 31m
Waxing Crescent, 39% of the Moon is Illuminated
Feb 16
Waxing Crescent
Feb 17
First Quarter
Feb 25
Full
Mar 4
Last Quarter
Mar 11
New

Hourly Weather History & Observations

Time (CST) Temp. Windchill Dew Point Humidity Pressure Visibility Wind Dir Wind Speed Gust Speed Precip Events Conditions
12:31 AM 8.6 °F -3.7 °F 6.8 °F 92% 30.19 in 0.5 mi WSW 8.1 mph - N/A Fog Light Freezing Fog
12:53 AM 9.0 °F -2.2 °F 7.0 °F 92% 30.29 in 0.8 mi SW 6.9 mph - 0.00 in Snow Light Snow
1:53 AM 9.0 °F -2.2 °F 7.0 °F 92% 30.27 in 1.0 mi SW 6.9 mph - 0.00 in   Overcast
2:07 AM 8.6 °F -1.3 °F 6.8 °F 92% 30.15 in 1.5 mi SSW 5.8 mph - N/A   Overcast
2:16 AM 8.6 °F 2.0 °F 6.8 °F 92% 30.15 in 1.0 mi South 3.5 mph - N/A   Overcast
2:24 AM 8.6 °F -1.3 °F 6.8 °F 92% 30.15 in 2.0 mi South 5.8 mph - N/A   Overcast
2:35 AM 8.6 °F 2.0 °F 6.8 °F 92% 30.15 in 1.2 mi South 3.5 mph - N/A   Overcast
2:45 AM 6.8 °F -3.5 °F 6.8 °F 100% 30.14 in 2.0 mi South 5.8 mph - N/A   Overcast
2:53 AM 7.0 °F -3.3 °F 6.1 °F 96% 30.25 in 4.0 mi South 5.8 mph - N/A   Overcast
3:24 AM 8.6 °F -1.3 °F 6.8 °F 92% 30.12 in 8.0 mi South 5.8 mph - N/A   Scattered Clouds
3:53 AM 8.1 °F -0.5 °F 6.1 °F 92% 30.23 in 8.0 mi South 4.6 mph - N/A   Mostly Cloudy
4:00 AM 8.6 °F -1.3 °F 6.8 °F 92% 30.11 in 8.0 mi SSE 5.8 mph - N/A   Overcast
4:53 AM 8.1 °F -3.2 °F 6.1 °F 92% 30.20 in 10.0 mi South 6.9 mph - N/A   Scattered Clouds
5:13 AM 8.6 °F -2.6 °F 6.8 °F 92% 30.07 in 3.0 mi SSE 6.9 mph - N/A   Overcast
5:21 AM 8.6 °F -1.3 °F 6.8 °F 92% 30.07 in 2.5 mi SSE 5.8 mph - N/A   Overcast
5:31 AM 8.6 °F -1.3 °F 6.8 °F 92% 30.07 in 6.0 mi SSE 5.8 mph - N/A   Overcast
5:42 AM 8.6 °F -1.3 °F 6.8 °F 92% 30.06 in 10.0 mi SE 5.8 mph - N/A   Overcast
5:53 AM 9.0 °F -0.9 °F 7.0 °F 92% 30.17 in 10.0 mi SE 5.8 mph - N/A   Overcast
6:53 AM 10.0 °F -2.9 °F 7.0 °F 87% 30.16 in 10.0 mi SSE 9.2 mph - N/A   Overcast
7:53 AM 10.0 °F -2.9 °F 8.1 °F 92% 30.15 in 10.0 mi SSE 9.2 mph - N/A   Overcast
8:53 AM 10.9 °F -1.8 °F 9.0 °F 92% 30.14 in 10.0 mi SSE 9.2 mph - N/A   Overcast
9:53 AM 12.0 °F -1.3 °F 10.0 °F 92% 30.14 in 10.0 mi SSE 10.4 mph - N/A   Overcast
10:53 AM 12.9 °F 0.7 °F 10.0 °F 88% 30.14 in 10.0 mi SSE 9.2 mph - N/A   Overcast
11:53 AM 15.1 °F 4.2 °F 12.0 °F 88% 30.13 in 10.0 mi SSE 8.1 mph - N/A   Mostly Cloudy
12:53 PM 18.0 °F 6.1 °F 14.0 °F 84% 30.09 in 10.0 mi South 10.4 mph - N/A   Overcast
1:53 PM 19.0 °F 6.8 °F 15.1 °F 85% 30.08 in 10.0 mi South 11.5 mph - N/A   Overcast
2:53 PM 19.9 °F 9.3 °F 15.1 °F 81% 30.08 in 10.0 mi South 9.2 mph - N/A   Partly Cloudy
3:53 PM 21.0 °F 9.3 °F 16.0 °F 81% 30.07 in 10.0 mi SSE 11.5 mph - N/A   Clear
4:53 PM 19.9 °F 8.6 °F 15.1 °F 81% 30.07 in 10.0 mi SSE 10.4 mph - N/A   Clear
5:53 PM 19.0 °F 9.0 °F 14.0 °F 81% 30.07 in 10.0 mi SSE 8.1 mph - N/A   Clear
6:53 PM 18.0 °F 9.8 °F 15.1 °F 88% 30.07 in 10.0 mi SE 5.8 mph - N/A   Clear
7:53 PM 17.1 °F 8.7 °F 14.0 °F 88% 30.06 in 10.0 mi SSE 5.8 mph - N/A   Clear
8:31 PM 17.6 °F 12.3 °F 14.0 °F 86% 29.97 in 10.0 mi SE 3.5 mph - N/A   Mostly Cloudy
8:53 PM 17.1 °F 11.7 °F 14.0 °F 88% 30.06 in 10.0 mi SE 3.5 mph - N/A   Overcast
9:53 PM 18.0 °F 9.8 °F 15.1 °F 88% 30.05 in 10.0 mi SE 5.8 mph - N/A   Overcast
10:53 PM 19.9 °F 8.6 °F 17.1 °F 89% 30.03 in 10.0 mi SSE 10.4 mph - N/A   Overcast
11:40 PM 19.4 °F 9.5 °F 17.6 °F 93% 29.93 in 10.0 mi South 8.1 mph - N/A   Overcast
11:53 PM 19.9 °F 11.1 °F 18.0 °F 92% 30.02 in 10.0 mi South 6.9 mph - N/A   Overcast